Simultaneous Nadir Overpasses (SNOs) Predictions

Prediction of SNOs between GOES-15 and METOP-C Satellite Orbit:

Table of predicted SNOs for the next 14.0 days since TLE Epoch: 5/14/2024
Index Date Time (GOES-15) GOES-15 Lat,Lon METOP-C Lat,Lon Distance(km) Time Diff (sec)
1 05/15/2024 05:38:41 -0.18, 61.66 0.58, 58.19 395.07 80
2 05/16/2024 05:15:22 -0.19, 61.68 -0.54, 63.19 172.12 80
3 05/17/2024 17:37:01 0.19, 61.68 -0.51, 58.61 351.00 80
4 05/18/2024 17:13:42 0.19, 61.71 0.63, 63.60 216.25 80
5 05/20/2024 05:35:12 -0.18, 61.77 0.41, 59.05 308.95 80
6 05/21/2024 05:11:52 -0.19, 61.79 -0.68, 64.06 257.95 80
7 05/22/2024 17:33:31 0.18, 61.80 -0.36, 59.47 266.03 80
8 05/23/2024 17:10:11 0.19, 61.83 0.80, 64.46 300.49 80
9 05/25/2024 05:31:41 -0.19, 61.90 0.26, 59.92 225.74 80
10 05/26/2024 05:08:20 -0.20, 61.94 -0.85, 64.93 340.15 80
11 05/27/2024 17:30:00 0.19, 61.96 -0.16, 60.34 185.19 80
